User: anonymous   Login
Location: ?ern� Novina
(50.6762°N, 14.8696°E)
Time: 19:26:10
(UTC+00:00)
Language:

Cosmos 1980 Rocket - Orbit

View from above orbital plane
View from above orbital plane
View from above satellite
View from above satellite

Ground track
Ground track

The orbit data is extracted from the following two-line orbital elements,

1 19650U 88102B   21136.54157664 -.00000066  00000-0 -93589-5 0  9994
2 19650  71.0009 249.4866 0013993 176.6182 183.5038 14.15805271678020
Epoch (UTC): 16 May 2021 12:59:52
Eccentricity: 0.0013993
inclination: 71.0009°
perigee height: 829 km
apogee height: 849 km
right ascension of ascending node: 249.4866°
argument of perigee: 176.6182°
revolutions per day: 14.15805271
mean anomaly at epoch: 183.5038°
orbit number at epoch: 67802

The dashed part of the orbit path shows where the satellite is in the earth's shadow,  

DLR